Location: Stockholm
(59.3330°N, 18.0500°E)
Time: 10:50:55
(UTC+01:00)

FENGYUN 1C DEB - Pass Details

Date: 07 December 2023
Orbit: 841 x 915 km, 98.8° (Epoch: 27 February)

Event Time Altitude Azimuth Distance (km) Brightness Sun altitude
Exits shadow 17:14:46 12° 24° (NNE) 2,334 ? -16.3°
Drops below altitude 10° 17:16:27 10° 6° (N) 2,478 ? -16.5°
Sets 17:20:26 0° 338° (NNW) 3,425 ? -17.0°
